Theta_e
293 294 294 295 295 296 295 296 296 297 296 297 298 299 300 301 303 306 309 315 319 320 321 319 318 320 319 320 319 319 317 316 311 314 317 318 319 319 316 313 312 314 313
290 291 291 292 292 291 291 291 292 292 293 294 295 295 296 297 299 300 301 304 306 310 316 319 318 318 318 319 318 317 317 317 314 311 316 318 317 317 317 316 310 307 310
288 288 289 289 287 287 287 288 288 289 290 291 291 292 293 294 295 296 297 299 301 304 306 309 312 316 316 317 317 316 317 316 316 314 313 317 317 316 308 307 309 308 305
286 286 284 284 283 284 284 285 285 286 286 287 288 289 290 291 292 293 293 294 295 296 298 300 301 303 306 312 315 316 316 315 315 314 313 313 316 307 305 301 297 295 302
282 281 280 280 281 282 282 282 283 283 284 285 285 286 287 288 289 288 289 290 291 292 294 295 297 296 291 296 301 305 308 311 313 312 310 311 311 297 297 306 303 309 300
279 278 278 279 279 279 279 280 280 281 281 282 282 283 283 284 285 285 286 286 288 288 290 292 293 292 294 294 295 295 297 302 305 308 309 308 309 310 306 305 305 302 298
278 278 277 277 278 278 278 279 278 279 280 280 281 281 281 283 284 284 285 286 286 287 289 290 291 292 291 295 294 294 295 295 297 303 305 308 309 312 309 304 304 303 304
277 276 276 276 276 277 277 277 278 278 278 279 279 280 280 281 282 283 283 284 285 286 287 288 289 290 291 291 292 292 293 295 297 300 303 306 309 311 312 313 307 304 304
275 275 275 275 275 275 275 276 277 277 277 278 278 279 279 279 281 281 282 282 283 283 285 287 288 289 289 290 289 289 289 292 295 295 296 297 298 300 301 306 301 297 298
273 273 274 274 274 274 275 275 275 276 275 276 276 277 278 277 279 280 281 281 281 281 283 284 284 285 287 288 287 287 286 288 289 290 292 294 296 300 297 302 303 299 300
272 272 272 272 272 273 273 273 274 274 274 274 274 276 276 277 278 279 280 280 279 279 280 281 282 283 284 285 286 286 286 288 289 289 289 290 291 293 296 300 303 302 301
270 269 269 270 271 272 271 272 272 272 272 272 273 274 275 276 277 278 279 280 280 279 279 280 281 282 283 283 283 284 286 286 285 285 287 288 289 290 292 295 299 302 305
267 266 268 268 269 269 269 270 270 271 271 271 271 272 273 275 276 277 278 279 279 278 279 279 281 281 282 282 283 283 283 283 283 284 284 286 288 290 291 292 294 297 299
265 266 267 267 267 268 269 269 269 269 269 269 270 270 271 273 274 276 276 277 277 277 277 278 278 279 280 280 280 282 282 283 282 283 285 287 288 288 288 291 292 294 293
264 264 265 266 266 266 267 267 267 269 269 269 269 270 269 270 272 275 275 275 275 275 275 276 275 276 277 277 279 280 282 283 283 284 285 286 286 287 288 290 291 292 291
262 263 263 263 264 264 265 265 268 268 269 270 271 270 270 272 273 274 274 275 275 276 272 270 270 272 273 275 276 277 279 283 284 285 285 286 286 287 287 289 290 291 290
259 260 261 262 262 262 262 262 262 264 267 267 268 269 270 270 272 272 272 273 274 272 267 267 267 268 269 270 272 273 273 275 277 285 285 286 286 287 287 288 289 289 289
258 258 260 261 261 261 261 261 261 261 260 261 264 266 267 269 269 270 271 271 265 266 265 265 265 266 266 267 267 269 270 272 273 275 282 286 286 286 286 287 288 288 287
257 259 259 260 260 260 260 260 260 260 259 260 261 263 264 265 266 269 268 264 262 262 263 264 265 265 265 265 266 267 268 269 271 272 274 284 286 286 286 287 288 287 287
257 256 257 258 258 258 258 258 258 258 258 258 259 259 260 261 262 261 262 262 262 262 263 263 263 264 264 264 265 266 266 267 269 271 272 273 285 286 286 287 287 287 286
256 257 256 257 257 256 257 257 257 257 257 257 258 259 263 261 259 259 259 260 261 261 262 262 262 263 263 264 264 265 266 266 267 268 269 271 275 285 286 287 287 287 287
256 256 256 256 256 256 256 256 256 256 256 256 257 258 261 258 258 258 258 259 260 261 262 262 262 262 263 263 263 264 265 265 266 267 268 270 272 275 285 286 286 287 286
256 255 255 255 255 254 255 255 255 255 255 255 255 256 256 256 256 257 257 258 259 260 261 261 261 261 263 263 264 265 266 266 267 268 268 269 271 272 280 285 286 285 285
254 254 254 254 254 253 253 254 254 254 254 254 254 255 255 255 255 255 256 257 257 259 260 260 261 260 261 263 265 266 268 269 270 271 273 272 272 274 280 285 285 285 285
254 254 254 254 253 253 253 253 253 253 253 254 254 254 254 254 254 254 255 255 256 257 258 259 259 261 262 262 266 268 270 271 272 273 274 275 276 277 282 284 285 285 285
254 254 254 253 253 252 252 252 253 253 253 253 253 254 253 253 253 254 254 254 255 256 256 258 259 260 261 265 268 270 272 273 274 274 274 273 275 281 283 284 284 285 285
Wind_Speed
12 11 11 11 11 11 10 10 10 10 11 11 11 11 10 10 11 10 10 9 10 11 10 11 13 13 10 9 9 10 10 10 14 14 11 12 14 12 10 9 9 11 10
10 10 11 11 11 12 11 12 12 11 11 11 11 11 11 11 11 11 12 11 12 13 11 11 13 10 14 13 10 12 12 12 12 19 14 11 12 12 13 12 10 9 11
9 9 10 11 12 12 12 12 12 13 12 12 12 12 12 12 12 12 12 13 14 14 14 14 15 14 12 11 12 11 11 10 11 12 15 12 12 9 9 8 9 11 9
8 10 11 11 11 11 11 12 12 11 12 12 12 12 12 12 13 12 14 15 15 15 15 16 16 16 16 15 12 13 13 13 13 13 13 13 13 5 6 6 8 5 12
9 10 10 10 11 10 10 12 12 11 10 11 12 12 12 11 8 15 16 17 16 17 16 16 15 15 15 15 12 15 16 15 12 11 13 11 13 6 8 8 12 11 9
10 11 10 10 11 12 12 11 11 11 11 11 11 12 13 9 17 19 18 16 17 17 16 16 17 14 15 16 15 17 17 16 19 14 15 16 19 14 9 12 11 9 10
11 11 11 12 11 11 11 11 11 12 13 13 12 12 12 13 18 21 21 15 16 16 18 16 15 11 12 16 18 20 21 21 24 17 21 22 20 18 10 13 13 13 16
7 6 7 8 9 10 11 12 13 12 12 11 12 12 13 12 19 22 23 16 15 16 17 18 18 17 16 16 18 20 20 20 16 13 17 21 21 21 19 16 14 18 16
7 8 8 9 10 10 11 12 12 12 12 11 12 13 13 13 19 22 21 16 15 17 16 17 18 18 21 21 19 22 23 20 16 19 24 29 30 31 24 14 16 8 13
7 8 8 9 9 10 11 12 12 12 12 11 13 12 15 15 18 20 19 11 14 13 15 16 21 19 26 25 20 19 21 20 19 19 18 22 24 23 22 18 16 16 14
7 8 8 9 10 10 11 11 11 13 13 13 14 13 14 13 14 20 21 14 13 14 13 13 12 26 30 32 31 20 22 23 25 20 19 18 18 19 16 16 15 15 17
7 9 9 9 8 8 11 11 11 12 13 13 14 12 11 13 17 18 23 23 23 15 16 15 17 31 35 37 32 34 34 30 18 18 16 17 17 18 16 16 18 17 17
8 9 9 10 9 10 11 12 11 11 11 12 11 12 12 11 11 21 22 24 25 20 16 26 39 39 38 30 33 35 30 17 16 16 18 19 17 16 19 17 18 19 19
8 9 9 10 11 10 8 8 9 10 11 11 12 13 13 12 11 11 12 14 20 18 23 20 28 36 37 32 24 22 16 17 18 17 18 17 15 14 16 14 15 16 14
9 9 9 8 9 10 9 9 10 11 12 13 12 14 16 14 14 27 25 17 16 20 26 17 16 15 16 16 16 17 16 16 17 17 17 18 16 15 16 14 15 15 15
8 8 8 9 9 9 10 11 14 18 22 23 26 22 14 28 32 34 33 34 35 34 16 15 15 15 16 16 16 17 17 18 15 16 16 16 16 16 15 14 14 14 15
8 9 8 9 8 10 10 11 12 12 19 20 22 25 29 31 32 32 34 35 32 27 10 12 14 14 15 16 16 16 18 16 21 19 17 16 16 16 17 15 14 13 14
7 9 7 7 8 8 9 11 11 11 12 11 14 21 25 28 31 33 32 28 16 12 10 12 14 14 15 16 17 17 18 17 16 17 21 15 15 16 16 16 14 14 13
7 6 6 7 7 9 9 10 11 11 11 12 12 14 16 25 30 29 28 11 13 14 13 13 13 14 15 15 16 17 19 17 18 18 19 20 14 15 16 16 15 18 17
6 8 7 7 8 9 9 10 10 11 11 11 11 12 12 15 14 14 13 12 12 13 14 15 15 15 15 16 16 17 17 17 17 17 17 18 17 14 16 16 15 14 13
5 6 7 6 7 8 9 10 10 10 10 10 12 12 26 15 13 13 13 12 13 13 14 15 16 16 15 16 17 17 17 17 17 17 17 17 20 16 15 16 15 14 14
5 6 6 7 8 8 9 9 10 10 11 11 11 12 25 11 11 12 13 13 13 14 13 15 15 16 16 16 17 18 18 19 18 17 17 18 17 20 15 14 13 14 12
6 7 7 7 8 10 10 9 9 10 11 11 12 11 11 10 11 12 13 14 14 14 14 14 16 16 16 16 17 18 18 19 18 18 19 19 18 17 19 14 13 13 12
8 8 8 9 8 9 9 10 10 12 12 11 11 11 11 11 12 14 13 13 14 15 15 15 15 22 20 19 18 18 18 18 18 19 26 19 19 20 19 14 13 14 13
8 8 9 9 9 9 10 10 11 11 11 11 11 11 11 11 12 13 13 13 13 15 18 18 16 21 25 31 30 30 28 34 25 25 17 21 23 25 19 12 13 12 14
9 9 9 8 9 9 10 10 11 11 10 10 10 11 11 11 12 13 13 13 14 15 20 16 20 28 31 26 28 32 33 33 25 28 18 16 18 15 11 13 16 11 12
Wind_Direction
42 42 42 38 34 32 30 21 13 3 1 359 353 347 343 339 336 324 311 301 280 267 251 247 251 257 250 243 236 239 237 234 251 263 250 260 253 250 235 224 235 236 241
39 41 39 35 27 20 12 7 1 354 352 348 345 340 337 333 328 321 313 308 297 287 280 265 254 251 249 250 249 242 239 238 243 259 262 257 252 245 250 241 226 223 230
33 37 37 36 21 11 2 356 356 351 349 348 344 340 334 329 324 320 315 308 303 296 293 289 282 274 263 256 251 249 252 254 250 256 264 262 255 238 239 234 238 235 234
44 39 25 15 22 5 357 351 349 350 349 349 344 337 334 330 324 325 325 316 308 302 300 294 292 289 288 291 280 265 255 252 252 254 257 256 264 229 224 220 248 229 242
41 42 27 6 13 359 356 357 346 344 352 349 341 337 334 330 336 333 323 316 310 305 301 297 295 295 303 294 290 288 289 284 271 256 261 263 253 235 221 233 243 252 239
40 35 19 6 4 7 353 345 342 345 353 351 345 341 335 324 331 327 326 317 311 306 302 300 299 298 290 285 282 275 266 277 273 269 269 258 257 249 231 234 240 243 255
37 28 15 4 358 351 343 339 339 349 349 344 339 336 323 319 330 326 323 314 308 304 300 301 300 300 297 295 293 287 281 263 251 271 270 264 273 265 249 234 228 230 243
48 34 16 2 351 343 343 346 343 344 337 333 328 325 321 317 328 325 324 311 306 303 299 300 298 299 297 302 300 293 286 282 286 274 259 266 266 274 274 269 241 245 253
33 17 7 358 346 340 340 339 336 331 329 327 323 317 315 318 327 329 328 316 312 306 303 302 301 300 298 296 295 294 293 290 287 274 271 276 279 278 266 276 260 251 254
16 1 353 348 340 333 332 332 328 323 317 320 314 316 316 316 323 325 325 315 307 308 307 304 300 297 298 302 297 291 285 289 293 293 289 287 287 282 271 242 256 253 250
0 347 343 339 331 326 327 324 320 320 318 316 318 321 317 318 320 320 320 315 310 306 303 302 298 299 299 297 294 288 286 300 292 280 278 276 276 275 273 264 249 239 248
352 340 335 331 328 327 324 319 321 319 319 319 318 315 318 317 316 316 315 313 309 306 302 298 294 295 295 293 291 285 284 284 278 277 277 273 271 271 270 269 264 251 240
343 332 330 331 328 330 326 325 325 326 320 320 319 315 313 317 312 312 312 312 313 309 301 299 301 300 297 294 288 287 285 276 271 268 265 263 263 270 275 270 265 263 247
338 334 332 331 332 323 323 320 320 320 322 320 315 314 311 313 314 315 312 312 308 306 307 299 296 295 293 286 289 284 272 266 260 256 258 263 265 262 263 259 259 260 248
338 330 328 325 323 323 322 322 319 316 317 315 314 312 313 313 312 312 315 311 311 307 306 299 297 294 294 290 285 280 276 266 262 260 259 261 259 256 256 256 257 254 240
325 331 332 327 328 322 321 316 313 312 313 311 311 310 307 305 314 313 317 315 310 311 313 303 297 294 294 298 297 299 302 283 262 262 263 262 261 260 260 257 256 243 238
332 323 326 319 317 319 319 314 314 315 310 310 310 310 310 310 316 319 317 311 318 325 304 302 299 300 301 300 300 296 294 292 303 281 258 258 260 259 260 257 256 241 233
318 306 298 301 309 309 315 315 309 311 315 313 312 310 311 316 319 319 315 327 315 314 302 301 300 300 300 301 298 296 297 296 298 293 294 259 252 254 256 254 250 239 229
302 300 306 299 304 314 311 311 312 310 308 308 311 311 317 317 315 315 325 316 306 309 309 304 303 302 300 298 297 296 294 296 294 293 294 281 260 251 251 250 248 235 225
285 287 303 311 318 317 315 310 313 309 307 306 308 312 321 316 322 320 313 309 305 304 305 304 305 302 301 300 298 293 296 294 297 293 293 297 283 256 253 251 245 236 225
297 298 312 297 303 306 303 304 302 300 299 304 304 306 310 320 313 304 304 304 304 303 304 304 302 303 301 300 298 295 295 295 292 294 291 293 297 274 255 250 243 236 230
284 296 298 300 305 298 291 293 293 297 300 299 298 299 309 305 301 302 302 302 303 301 299 301 300 299 298 299 296 294 295 295 294 291 290 289 289 297 275 250 239 235 229
291 290 284 290 286 283 284 290 294 296 297 296 297 298 302 302 303 301 301 301 302 302 303 301 297 297 298 295 293 294 294 295 292 290 288 286 287 285 283 260 243 233 224
273 272 276 282 284 285 290 292 292 286 287 290 291 292 294 297 299 297 298 300 302 301 301 300 301 297 298 297 297 294 293 293 294 290 297 277 274 279 273 263 243 233 228
264 267 270 282 285 287 288 281 281 284 285 285 285 285 288 292 293 294 297 299 299 301 302 307 301 301 303 302 300 300 300 305 295 298 295 297 285 273 265 262 247 233 221
262 267 271 276 275 273 271 273 276 278 278 280 280 283 286 289 290 294 297 297 298 302 305 301 305 304 307 304 306 311 313 314 317 319 311 303 303 281 266 256 248 231 213